When you browse on this site, cookies collect data to enhance your experience and personalize the content and advertising you see.
Visit our Privacy Policy to learn more. By continuing to use the site, you agree to this use of cookies and data.
  • In Hungary
  • List of Countries
  • For 7 days
  • Water Temperature
  • Satellite Maps
  • Weather Map
  • News
  • Weather Widgets
  • user-avatar
    Login

    Hourly Weather Nuernberg

    Today, 20 April, Saturday

    Time Temperature Precipitation Wind Pressure Humidity
    00:00 +13°C° 0 mm 2 mps 743 mmHg 68%
    01:00 +13°C° 0 mm 2 mps 743 mmHg 67%
    02:00 +12°C° 0 mm 2 mps 743 mmHg 67%
    03:00 +10°C° 0 mm 2 mps 743 mmHg 68%
    04:00 +10°C° 0 mm 2 mps 743 mmHg 68%
    05:00 +10°C° 0 mm 2 mps 743 mmHg 67%
    06:00 +12°C° 0 mm 2 mps 743 mmHg 65%
    07:00 +13°C° 0 mm 2 mps 743 mmHg 60%
    08:00 +14°C° 0 mm 3 mps 743 mmHg 51%
    09:00 +18°C° 0 mm 3 mps 743 mmHg 42%
    10:00 +20°C° 0 mm 3 mps 743 mmHg 32%
    11:00 +21°C° 0 mm 3 mps 743 mmHg 30%
    12:00 +22°C° 0 mm 3 mps 743 mmHg 29%
    13:00 +24°C° 0 mm 3 mps 742 mmHg 27%
    14:00 +24°C° 0 mm 3 mps 742 mmHg 27%
    15:00 +24°C° 0 mm 3 mps 742 mmHg 28%
    16:00 +24°C° 0 mm 3 mps 741 mmHg 29%
    17:00 +21°C° 0 mm 2 mps 741 mmHg 35%
    18:00 +18°C° 0 mm 2 mps 741 mmHg 42%
    19:00 +16°C° 0 mm 2 mps 740 mmHg 48%
    20:00 +15°C° 0 mm 2 mps 740 mmHg 51%
    21:00 +14°C° 0 mm 2 mps 741 mmHg 55%
    22:00 +12°C° 0 mm 2 mps 741 mmHg 58%
    23:00 +12°C° 0 mm 2 mps 741 mmHg 59%

    Tomorrow, 21 April, Sunday

    Time Temperature Precipitation Wind Pressure Humidity
    00:00 +10°C° 0 mm 2 mps 741 mmHg 60%
    01:00 +10°C° 0 mm 1 mps 740 mmHg 62%
    02:00 +10°C° 0 mm 1 mps 740 mmHg 63%
    03:00 +10°C° 0 mm 1 mps 740 mmHg 64%
    04:00 +9°C° 0 mm 1 mps 739 mmHg 64%
    05:00 +9°C° 0 mm 2 mps 739 mmHg 64%
    06:00 +10°C° 0 mm 2 mps 739 mmHg 63%
    07:00 +12°C° 0 mm 2 mps 739 mmHg 62%
    08:00 +14°C° 0 mm 2 mps 739 mmHg 54%
    09:00 +17°C° 0 mm 2 mps 739 mmHg 47%
    10:00 +19°C° 0 mm 3 mps 739 mmHg 39%
    11:00 +20°C° 0 mm 3 mps 738 mmHg 36%
    12:00 +21°C° 0 mm 3 mps 737 mmHg 34%
    13:00 +22°C° 0 mm 3 mps 737 mmHg 31%
    14:00 +22°C° 0 mm 3 mps 736 mmHg 32%
    15:00 +22°C° 0 mm 3 mps 736 mmHg 33%
    16:00 +22°C° 0 mm 3 mps 735 mmHg 34%
    17:00 +20°C° 0 mm 3 mps 735 mmHg 41%
    18:00 +18°C° 0 mm 3 mps 735 mmHg 48%
    19:00 +16°C° 0 mm 3 mps 734 mmHg 55%
    20:00 +14°C° 0 mm 3 mps 734 mmHg 56%
    21:00 +13°C° 0 mm 3 mps 734 mmHg 57%
    22:00 +12°C° 0 mm 3 mps 735 mmHg 58%
    23:00 +11°C° 0 mm 3 mps 734 mmHg 61%

    Day after tomorrow, 22 April, Monday

    Time Temperature Precipitation Wind Pressure Humidity
    00:00 +10°C° 0 mm 2 mps 734 mmHg 64%
    01:00 +10°C° 0 mm 2 mps 734 mmHg 66%
    02:00 +9°C° 0 mm 2 mps 733 mmHg 69%
    03:00 +9°C° 0 mm 2 mps 733 mmHg 71%
    04:00 +8°C° 0 mm 2 mps 733 mmHg 74%
    05:00 +9°C° 0 mm 2 mps 732 mmHg 70%
    06:00 +10°C° 0 mm 3 mps 732 mmHg 67%
    07:00 +10°C° 0 mm 3 mps 732 mmHg 64%
    08:00 +13°C° 0 mm 4 mps 732 mmHg 56%
    09:00 +15°C° 0 mm 4 mps 731 mmHg 49%
    10:00 +17°C° 0 mm 5 mps 731 mmHg 42%
    11:00 +19°C° 0 mm 5 mps 730 mmHg 40%
    12:00 +20°C° 0 mm 5 mps 730 mmHg 37%
    13:00 +21°C° 0 mm 5 mps 729 mmHg 35%
    14:00 +21°C° 0 mm 5 mps 728 mmHg 36%
    15:00 +21°C° 0 mm 5 mps 728 mmHg 37%
    16:00 +21°C° 0 mm 5 mps 727 mmHg 37%
    17:00 +19°C° 0 mm 5 mps 727 mmHg 43%
    18:00 +16°C° 0 mm 5 mps 727 mmHg 48%
    19:00 +15°C° 0 mm 5 mps 726 mmHg 54%
    20:00 +13°C° 0 mm 5 mps 726 mmHg 57%
    21:00 +12°C° 0 mm 5 mps 726 mmHg 61%
    22:00 +10°C° 0 mm 5 mps 726 mmHg 64%
    23:00 +10°C° 0 mm 5 mps 725 mmHg 68%

    23 April, Tuesday

    Time Temperature Precipitation Wind Pressure Humidity
    00:00 +9°C° 0 mm 5 mps 725 mmHg 73%
    01:00 +10°C° 0 mm 4 mps 725 mmHg 77%
    02:00 +8°C° 0 mm 4 mps 724 mmHg 80%
    03:00 +8°C° 0 mm 4 mps 724 mmHg 83%
    04:00 +8°C° 0 mm 4 mps 723 mmHg 86%
    05:00 +10°C° 0 mm 4 mps 723 mmHg 83%
    06:00 +11°C° 0 mm 4 mps 723 mmHg 80%
    07:00 +11°C° 0 mm 4 mps 723 mmHg 77%
    08:00 +13°C° 0 mm 4 mps 722 mmHg 70%
    09:00 +15°C° 0 mm 4 mps 722 mmHg 63%
    10:00 +17°C° 0 mm 4 mps 722 mmHg 56%
    11:00 +19°C° 0 mm 4 mps 722 mmHg 52%
    12:00 +20°C° 0 mm 3 mps 722 mmHg 48%
    13:00 +22°C° 0 mm 3 mps 721 mmHg 44%
    14:00 +22°C° 0 mm 3 mps 721 mmHg 44%
    15:00 +22°C° 0 mm 3 mps 721 mmHg 43%
    16:00 +24°C° 0 mm 3 mps 720 mmHg 42%
    17:00 +21°C° 0 mm 2 mps 720 mmHg 50%
    18:00 +19°C° 0 mm 2 mps 720 mmHg 57%
    19:00 +18°C° 0 mm 2 mps 720 mmHg 64%
    20:00 +16°C° 0 mm 2 mps 720 mmHg 70%
    21:00 +15°C° 0 mm 2 mps 721 mmHg 75%
    22:00 +14°C° 0 mm 2 mps 721 mmHg 80%
    23:00 +14°C° 0 mm 2 mps 721 mmHg 81%

    24 April, Wednesday

    Time Temperature Precipitation Wind Pressure Humidity
    00:00 +13°C° 0 mm 2 mps 722 mmHg 81%
    01:00 +13°C° 0 mm 2 mps 722 mmHg 81%
    02:00 +13°C° 0 mm 2 mps 723 mmHg 84%
    03:00 +12°C° 0 mm 2 mps 723 mmHg 86%
    04:00 +10°C° 0 mm 2 mps 723 mmHg 89%
    05:00 +12°C° 0 mm 2 mps 724 mmHg 87%
    06:00 +13°C° 0 mm 1 mps 724 mmHg 85%
    07:00 +14°C° 0 mm 1 mps 725 mmHg 82%
    08:00 +16°C° 0 mm 1 mps 725 mmHg 73%
    09:00 +20°C° 0 mm 1 mps 726 mmHg 64%
    10:00 +23°C° 0 mm 1 mps 726 mmHg 55%
    11:00 +24°C° 0 mm 1 mps 727 mmHg 51%
    12:00 +25°C° 0 mm 1 mps 727 mmHg 47%
    13:00 +26°C° 0 mm 1 mps 727 mmHg 43%
    14:00 +26°C° 0 mm 1 mps 726 mmHg 43%
    15:00 +26°C° 0 mm 2 mps 726 mmHg 44%
    16:00 +25°C° 0 mm 2 mps 726 mmHg 45%
    17:00 +24°C° 0 mm 2 mps 725 mmHg 50%
    18:00 +21°C° 0 mm 2 mps 725 mmHg 56%
    19:00 +20°C° 0 mm 2 mps 725 mmHg 61%
    20:00 +19°C° 0.2 mm 3 mps 726 mmHg 66%
    21:00 +18°C° 0.2 mm 3 mps 727 mmHg 71%
    22:00 +17°C° 0.2 mm 3 mps 728 mmHg 76%
    23:00 +14°C° 0 mm 3 mps 729 mmHg 77%

    25 April, Thursday

    Time Temperature Precipitation Wind Pressure Humidity
    00:00 +13°C° 0 mm 2 mps 729 mmHg 78%
    01:00 +11°C° 0 mm 1 mps 730 mmHg 79%
    02:00 +11°C° 0 mm 1 mps 730 mmHg 81%
    03:00 +11°C° 0 mm 1 mps 730 mmHg 83%
    04:00 +10°C° 0 mm 1 mps 731 mmHg 85%
    05:00 +11°C° 0 mm 1 mps 731 mmHg 81%
    06:00 +12°C° 0 mm 1 mps 731 mmHg 77%
    07:00 +13°C° 0 mm 1 mps 731 mmHg 74%
    08:00 +15°C° 0 mm 1 mps 731 mmHg 65%
    09:00 +17°C° 0 mm 2 mps 731 mmHg 56%
    10:00 +19°C° 0 mm 2 mps 731 mmHg 47%
    11:00 +21°C° 0 mm 2 mps 730 mmHg 45%
    12:00 +22°C° 0 mm 3 mps 730 mmHg 42%
    13:00 +25°C° 0 mm 3 mps 729 mmHg 39%
    14:00 +25°C° 0 mm 3 mps 729 mmHg 40%
    15:00 +25°C° 0 mm 2 mps 728 mmHg 40%
    16:00 +26°C° 0 mm 2 mps 728 mmHg 41%
    17:00 +24°C° 0 mm 2 mps 727 mmHg 48%
    18:00 +22°C° 0 mm 1 mps 727 mmHg 56%
    19:00 +20°C° 0 mm 1 mps 727 mmHg 63%
    20:00 +19°C° 0.6 mm 1 mps 727 mmHg 69%
    21:00 +18°C° 0.6 mm 1 mps 727 mmHg 75%
    22:00 +16°C° 0.6 mm 2 mps 727 mmHg 81%
    23:00 +14°C° 0.4 mm 3 mps 727 mmHg 84%
    Show more